Regional Weather Roundup
Issued by NWS Upton, NY

Current Version | Previous Version | Text Only | Print | Product List | Glossary Off
Versions: 1 2 3 4 5 6 7 8 9 10 11 12 13 14 15 16 17 18 19 20 21 22 23 24 25 26 27

000
ASUS41 KOKX 260405
RWROKX

REGIONAL WEATHER ROUNDUP
NATIONAL WEATHER SERVICE NEW YORK NY
1200 AM EDT TUE JUL 26 2016

NOTE: "FAIR" INDICATES FEW OR NO CLOUDS BELOW 12,000 FEET WITH NO
SIGNIFICANT WEATHER AND/OR OBSTRUCTIONS TO VISIBILITY.

NYZ071-072-176-178-NJZ106-104-260500-
NEW YORK CITY METRO AREA

CITY           SKY/WX    TMP DP  RH WIND       PRES   REMARKS
Central Park   MOCLDY    74  72  93 VRB7      29.91R FOG
LaGuardia APRT PTCLDY    78  73  84 SW10      29.87S
Kennedy INTL   CLOUDY    74  72  93 SW17      29.89S
Newark/Liberty MOCLDY    75  72  90 SW15      29.88F
Bronx Bot Gard   N/A     75  72  88 SW16      29.89F
Wall St Helipt MOCLDY    75  73  94 W10       29.89S
Teterboro      CLEAR     75  72  90 W6        29.87S
$$

NYZ177-179-078>081-260500-
LONG ISLAND NEW YORK

CITY           SKY/WX    TMP DP  RH WIND       PRES   REMARKS
Farmingdale    PTCLDY    74  72  93 W9        29.87S
MacArthur/ISP  MOCLDY    73  71  93 SW10      29.85S
Shirley        CLOUDY    74  72  93 W8        29.86S
Riverhead      NOT AVBL
Westhampton    PTCLDY    72  69  90 W10       29.86S
Southhampton     N/A     72  70  94 W9        29.80F
Bridgehampton    N/A     70  68  94 CALM      29.84R
East Hampton   FAIR      72  68  89 W10G16    29.84R
Montauk          N/A     74  69  85 W9G18     29.85R
$$

NYZ052-065-067-260500-
HUDSON VALLEY

CITY           SKY/WX    TMP DP  RH WIND       PRES   REMARKS
White Plains   MOCLDY    73  71  93 W8        29.88R
Newburgh       NOT AVBL
Montgomery     CLEAR     68  68 100 S5        29.89S
Poughkeepsie   PTCLDY    72  69  90 S5        29.87S
Albany         PTCLDY    72  70  93 S5        29.85S
$$

NJZ001-105-106-008-010-013-015-019>022-104-260500-
NEW JERSEY

CITY           SKY/WX    TMP DP  RH WIND       PRES   REMARKS
Newark/Liberty MOCLDY    75  72  90 SW15      29.88F
Teterboro      CLEAR     75  72  90 W6        29.87S
Caldwell       CLEAR     73  72  96 VRB3      29.89S
Morristown     PTCLDY    72  68  88 CALM      29.90S
Somerville     CLOUDY    73  71  93 CALM      29.89S
Linden         CLOUDY    74  72  91 CALM      29.91R
Sussex         PTCLDY    70  70 100 CALM      29.91S
Abdover          N/A     71  69  93 S7        29.92S
Trenton        PTCLDY    74  71  91 W3        29.90F
Millville      CLOUDY    74  71  91 SE7       29.90F
Atlantic City  CLOUDY    75  73  93 SW5       29.93R
Wrightstown    CLOUDY    73  71  96 W5        29.88F
Toms River     CLOUDY    73  72  96 SW6       29.90F
Belmar         CLOUDY    73  72  96 SW6       29.90F
$$

PAZ047>061-062-071-260500-
EASTERN PENNSYLVANIA

CITY           SKY/WX    TMP DP  RH WIND       PRES   REMARKS
Philadelphia   MOCLDY    75  72  90 W5        29.92S
Allentown      CLEAR     70  67  90 W3        29.93S
Scranton       CLEAR     69  68  96 SW6       29.93F
$$

CTZ002-004>006-009-010-012-RIZ004-006-007-MAZ004-011-015-260500-
SOUTHERN NEW ENGLAND
 IN CT

CITY           SKY/WX    TMP DP  RH WIND       PRES   REMARKS
Bradley INTL   PTCLDY    75  67  76 W5        29.82F
Hartford       CLEAR     76  69  79 S3        29.83F
Danbury        PTCLDY    71  69  93 W3        29.89S
Wtrbury/Oxford   N/A     70  64  83 W3        29.88S
Bridgeport     CLOUDY    75  70  84 W8        29.86R
Meriden        CLEAR     71  68  90 S3        29.85S
New Haven      PTCLDY    73  70  90 VRB3      29.86R
Chester        FAIR      72  70  94 CALM      29.86S
Groton         CLOUDY    75  72  90 W6        29.83S
Wilimantic     NOT AVBL

 IN RI

CITY           SKY/WX    TMP DP  RH WIND       PRES   REMARKS
Providence     CLOUDY    77  69  76 W7        29.81R
Block Island   CLOUDY    71  70  96 W10       29.85R
Westerly       CLOUDY    75  70  84 W5        29.84S
 IN MA

CITY           SKY/WX    TMP DP  RH WIND       PRES   REMARKS
Boston         CLOUDY    80  70  71 W13       29.76F
Worchester     CLEAR     74  68  81 W18       29.83F
Westfield      CLEAR     74  68  81 CALM      29.82F
Provincetown   CLOUDY    73  71  93 SW10      29.78S
Nantucket      CLOUDY    72  71  97 SW10      29.80S FOG
$$

ANZ330-335-338-340-345-350-353-355-260500-
COASTAL MARINE OBSERVATIONS


STATION/POSITION TIME  SKY/WX   TEMP    WIND        PRES    VSBY  WAVE
                                AIR SEA DIR/SP/G                  HT/PER
                 (UTC)          (F)     (DEG/KT/KT) (MB)    (MI)  (FT/S)
NY HARB ENTRANCE 0350            74 72  230/ 16/ 19 1011.0          2/ 4
20S FIRE ISLAND  0250            74 73  190/ 17/ 19 1010.3          2/ 5
GREAT SOUTH BAY  0300            76 81  240/ 14/ 16   N/A
23 SSW MONTAUK P 0250            75 73  240/ 16/ 19 1010.7          2/ 4
15 E BARNEGAT LI 0322               75                N/A           2/ 4
HUDSON CANYON    0250            74 77              1013.1          3/ 4
KINGS POINT      0300            74 74                N/A
EXECUTION ROCKS  0300            74     200/  8/ 10   N/A
CENTRAL LI SOUND 0300            75 75  260/ 14/ 17   N/A           1/ 3
EASTERN LI SOUND 0300            72 68  270/ 12/ 16   N/A
ROBBINS REEF     0300            75     240/ 10/ 13   N/A
$$


>>>>>>>>>>>>>>>>>>>>>>>>>>>> KEY <<<<<<<<<<<<<<<<<<<<<<<<<<<
>                                                          <
>     SKY/WX - Sky Condition/Present Weather               <
>     TMP    - Temperature in Fahrenheit                   <
>     DP     - Dew Point in Fahrenheit                     <
>     RH     - Relative Humidity in Percent                <
>     WIND   - Direction (from) and Speed in MPH           <
>     PRES   - Mean Sea Level Pressure (inches of Hg)      <
>     WCI    - Wind Chill Index                            <
>     VSB    - VISIBILITY IN MILES                         <
>     HX     - HEAT INDEX                                  <
>     TC     - TEMPERATURE IN CELSIUS                      <
>     VRB    - VARIABLE WIND DIRECTION                     <
>                                                          <
>>>>>>>>>>>>>>>>>>>>>>>>>>>> KEY <<<<<<<<<<<<<<<<<<<<<<<<<<<




USA.gov is the U.S. government's official web portal to all federal, state and local government web resources and services.